Find Starlink 37097

NORAD ID: 68238 Int'l Des: 2026-054 Owner: SPXS Country: US Constellation: starlink operational
LEOCIRCULAR

現在のビュー

3D地球を読み込み中...

About Starlink 37097

Starlink 37097 (NORAD 68238) is a starlink constellation satellite (v2 mini) launched Mar 17, 2026 by SPXS of US. It operates in LEO, CIRCULAR orbit with a mass of 575.00 kg.

Starlink 37097について

説明を読み込み中...

次回通過

Passes for default location (London). Set your location on the main map for personalized predictions.

高度履歴

Loading altitude history...

軌道要素

1 68238U 26054G 26170.03354919 .00012196 00000-0 37160-3 0 9993
2 68238 53.1582 178.5817 0001546 91.5117 268.6063 15.34391145 14619
Epoch: Jun 19, 2026 • Age: 8 hours

現在のステータス

高度 465.2 km
速度 7.63 km/s
衛星直下点 -7.93°S, 134.84°E
打ち上げ日 Mar 17, 2026
運用期間 0.2 years
タイプ internet

技術仕様

分類 Payload
質量 575.00 kg
乾燥質量 530.00 kg
総質量 575.00 kg
長さ 0.30 m
直径 4.10 m
スパン 29.00 m
形状 Box + pan
製造者 SPXS
バスタイプ Starlink V2MO
フェーズステータス In Orbit
所有者/国 SPXS/US

Most Searched